[[[{"header":{"parameterUnit":"kt","parameterCategory":2,"dx":1,"dy":1,"la1":30.253999710083008,"la2":30.299108505249023,"lo1":-89.0895004272461,"lo2":-89.04439544677734,"nx":28,"ny":28,"refTime":"2022-10-30T21:00:00:Z","depth":0,"parameterNumber":1,"parameterNumberName":"U-component_of_WINDS"},"data":[6.9616,6.987,6.9927,7.0246,7.0351,7.058,7.068,7.0816,7.094,7.1222,7.1395,7.148,7.1628,7.1851,7.2043,7.2078,7.2156,7.2206,7.2238,7.1961,7.1927,7.1894,7.1836,7.2222,7.2222,7.2517,7.252,7.2522,6.9412,6.9517,6.9701,6.9919,7.0078,7.0065,7.0238,7.0373,7.0578,7.0732,7.0904,7.1158,7.1367,7.1501,7.1713,7.1837,7.1844,7.189,7.1883,7.1907,7.1613,7.1551,7.1881,7.1881,7.1881,7.1881,7.1881,7.1881,6.9056,6.9206,6.9369,6.957,6.9695,6.9841,6.9995,7.0095,7.0277,7.0502,7.0535,7.077,7.0936,7.1219,7.1328,7.1515,7.1475,7.1544,7.1562,7.1579,7.159,7.1161,7.1554,7.1553,7.1552,7.1552,7.1551,0,6.8813,6.885,6.9029,6.9227,6.9376,6.9535,6.9691,6.9788,6.9886,7.0033,7.0252,7.0388,7.0657,7.0871,7.1082,7.1182,7.1186,7.1192,7.1241,7.1229,7.1192,7.1217,7.0737,7.118,7.1177,7.1175,7.1174,7.1172,6.8461,6.8628,6.8825,6.8944,6.9042,6.9233,6.9359,6.9433,6.9564,6.9767,6.9898,7.0112,7.0287,7.063,7.0747,7.0949,7.0953,7.1117,7.0984,7.0966,7.096,7.0949,7.0968,7.1141,7.1145,7.1148,7.1151,0,6.8257,6.8347,6.8624,6.8803,6.8853,6.9026,6.9181,6.9335,6.9414,6.9639,6.9695,6.9821,7.0035,7.0126,7.0389,7.043,7.0724,7.0722,7.0668,7.0673,7.083,7.0815,7.1321,7.1392,7.0992,7.0995,7.0998,0,6.7993,6.821,6.8331,6.8487,6.8732,6.8798,6.904,6.9132,6.9273,6.945,6.9465,6.9632,6.9721,6.9902,6.9963,7.0218,7.0267,7.0315,7.0329,7.0315,7.0309,7.0387,7.0369,7.035,7.0348,7.0345,7.0343,0,6.7666,6.7984,6.8237,6.8325,6.8537,6.8655,6.875,6.8907,6.903,6.9204,6.9286,6.9484,6.9593,6.9748,6.9824,6.9731,7.0138,7.0026,7.0187,7.0186,7.0273,7.0267,7.0691,7.034,7.0339,7.0338,7.0337,0,6.7465,6.7636,6.7989,6.8167,6.8247,6.8415,6.8613,6.8777,6.8943,6.8991,6.9128,6.9149,6.9377,6.926,6.9577,6.9434,6.9542,6.9608,6.9621,6.9648,6.9514,6.9744,7.0136,7.0182,6.9672,6.9667,6.9662,0,6.7069,6.7448,6.7506,6.7841,6.8029,6.8033,6.8221,6.8365,6.8445,6.8617,6.8706,6.8903,6.8834,6.8908,6.9053,6.9153,6.9339,6.913,6.9385,6.9393,6.9342,6.9704,6.974,7.0039,6.9592,6.9599,6.9605,0,6.6772,6.7024,6.7079,6.7181,6.738,6.7537,6.7752,6.796,6.8072,6.8232,6.8416,6.8694,6.8654,6.8776,6.8813,6.896,6.9215,6.8897,6.8902,6.8954,6.9563,6.9597,6.9647,6.9209,6.9218,6.9224,6.9549,0,6.6454,6.6653,6.6806,6.7027,6.7161,6.7374,6.7465,6.7595,6.7617,6.7694,6.7966,6.8108,6.8321,6.84,6.8422,6.8726,6.869,6.8645,6.8538,6.8773,6.8883,6.8927,6.8367,6.8364,6.8362,6.836,0,0,6.6054,6.634,6.6395,6.6604,6.6721,6.672,6.694,6.7054,6.7284,6.7366,6.7306,6.7718,6.7836,6.8156,6.8237,6.8322,6.8387,6.8299,6.866,6.8692,6.8723,6.8839,6.8884,6.8356,6.8355,6.8355,6.8354,0,6.5956,6.607,6.6284,6.6404,6.6582,6.6653,6.6704,6.6882,6.6942,6.7205,6.7203,6.7376,6.7702,6.7828,6.7935,6.8263,6.8252,6.8321,6.8467,6.8634,6.867,6.8702,6.8822,6.8864,6.8349,6.8349,6.8349,0,6.5681,6.581,6.5922,6.6183,6.63,6.6492,6.6401,6.6606,6.6751,6.674,6.7002,6.7093,6.7269,6.7558,6.7691,6.7641,6.8126,6.7987,6.8004,6.8021,6.8188,6.823,6.8269,6.7765,6.7762,6.776,0,0,6.5585,6.5768,6.5928,6.6168,6.6242,6.6349,6.6459,6.6491,6.6646,6.6708,6.6824,6.6978,6.7168,6.7292,6.7475,6.7779,6.7823,6.7911,6.7939,6.7961,6.799,6.8162,6.8205,6.7751,6.7751,6.7751,0,0,6.5539,6.5732,6.5725,6.6014,6.6161,6.6335,6.648,6.6476,6.6649,6.6635,6.6701,6.6744,6.7016,6.7105,6.6972,6.7439,6.7331,6.7365,6.737,6.7407,6.7434,6.7407,6.6901,0,0,0,0,0,6.5484,6.5708,6.5699,6.5761,6.6091,6.6339,6.6383,6.644,6.6363,6.6477,6.6574,6.6553,6.7048,6.6932,6.6993,6.7141,6.7633,6.7654,6.7674,6.7753,6.779,6.7821,0,0,0,0,0,0,6.5508,6.5583,6.5694,6.5876,6.5951,6.6332,6.6214,6.6236,6.6352,6.6344,6.6535,6.6559,6.6615,6.6904,6.6959,6.7098,6.6882,6.7642,6.7659,6.7675,6.7766,6.7796,6.7822,0,0,0,0,0,6.5528,6.5588,6.6102,6.5873,6.5938,6.6069,6.6206,6.6223,6.6314,6.6464,6.6487,6.6347,6.6617,6.6667,6.6937,6.7072,6.6845,6.6865,6.7653,6.7667,6.768,6.7781,0,0,0,0,0,0,6.5543,6.5608,6.6116,6.6138,6.5791,6.6049,6.609,6.6212,6.6428,6.6453,6.6278,6.6269,6.6622,6.666,6.6699,6.7059,6.6814,6.6835,6.6847,6.7664,6.7675,6.7684,0,0,0,0,0,0,6.5576,6.5626,6.6128,6.6021,6.6032,6.603,6.6067,6.6304,6.643,6.623,6.6229,6.6271,6.6564,6.6656,6.6686,6.7053,6.6791,6.681,6.6824,6.6833,6.7673,6.7681,0,0,0,0,0,0,6.5598,6.5642,6.6016,6.6024,6.6033,6.6285,6.624,6.6576,6.6336,6.622,6.6316,6.6307,6.6561,6.6592,6.6677,6.7032,6.7048,6.6791,6.6805,6.6814,6.682,0,0,0,0,0,0,0,6.5616,6.5309,6.5985,6.6026,6.6034,6.6342,6.6349,6.6355,6.6334,6.6326,6.6318,6.6311,6.6678,6.67,6.6722,6.7014,0,0,6.6789,6.6799,0,0,0,0,0,0,0,0,6.5292,6.5305,6.5986,6.599,6.5995,6.6343,6.6348,6.6353,6.6333,6.6326,6.632,6.6314,6.6684,6.6701,6.6719,0,0,0,0,0,0,0,0,0,0,0,0,0,0,0,6.5986,6.599,0,6.6344,6.6348,6.6352,6.6332,6.6326,6.6321,6.6316,6.6689,6.6703,6.6718,0,0,0,0,0,0,0,0,0,0,0,0,0,0,0,0,0,0,0,0,0,0,0,0,0,0,0,0,0,0,0,0,0,0,0,0,0,0,0,0,0,0,0,0,0,0,0,0,0,0,0,0,0,0,0,0,0,0,0,0,0,0,0,0,0,0,0,0,0]}],[{"header":{"parameterUnit":"kt","parameterCategory":2,"dx":1,"dy":1,"la1":30.253999710083008,"la2":30.299108505249023,"lo1":-89.0895004272461,"lo2":-89.04439544677734,"nx":28,"ny":28,"refTime":"2022-10-30T21:00:00:Z","depth":0,"parameterNumber":2,"parameterNumberName":"V-component_of_WINDS"},"data":[0.5228,0.5284,0.53,0.5372,0.54,0.5452,0.5477,0.5511,0.5543,0.561,0.5652,0.5677,0.5718,0.5774,0.5823,0.5833,0.5853,0.5859,0.5871,0.5823,0.5817,0.5812,0.5799,0.5863,0.5863,0.5917,0.5918,0.5918,0.5191,0.5217,0.526,0.5313,0.535,0.5354,0.5397,0.5429,0.5477,0.5517,0.556,0.5621,0.5673,0.5713,0.5767,0.5796,0.5802,0.5809,0.5807,0.5814,0.5763,0.5749,0.5804,0.5804,0.5804,0.5804,0.5804,0.5803,0.5126,0.5159,0.52,0.5247,0.5279,0.5315,0.535,0.5378,0.5422,0.5478,0.5492,0.5548,0.5594,0.5669,0.5699,0.5745,0.574,0.5755,0.5759,0.5762,0.5762,0.568,0.5755,0.5755,0.5755,0.5755,0.5755,0,0.5084,0.5095,0.5138,0.5185,0.522,0.526,0.5299,0.5321,0.5355,0.539,0.5443,0.5477,0.5546,0.56,0.5655,0.5685,0.5694,0.5698,0.5708,0.5701,0.5687,0.5694,0.561,0.5696,0.5695,0.5695,0.5695,0.5695,0.502,0.5056,0.5108,0.5136,0.5161,0.5206,0.5236,0.5263,0.5295,0.5349,0.5378,0.5432,0.5476,0.5561,0.5598,0.5651,0.5656,0.5686,0.5665,0.5656,0.5656,0.5653,0.5657,0.569,0.5691,0.5691,0.5692,0,0.4982,0.5009,0.5071,0.512,0.5133,0.5171,0.5214,0.525,0.5274,0.5327,0.5341,0.5381,0.5435,0.5467,0.5536,0.5551,0.5617,0.5622,0.5601,0.5603,0.5633,0.563,0.5726,0.574,0.5674,0.5675,0.5675,0,0.4937,0.4985,0.5023,0.5058,0.5112,0.5136,0.519,0.5217,0.5255,0.5297,0.5312,0.5351,0.5386,0.5431,0.5454,0.5514,0.5528,0.5543,0.5549,0.5542,0.5539,0.556,0.5557,0.5561,0.556,0.556,0.5559,0,0.4874,0.4951,0.5008,0.503,0.5087,0.5114,0.514,0.5184,0.5214,0.526,0.528,0.5333,0.5361,0.5402,0.5431,0.5414,0.5505,0.5489,0.5521,0.552,0.554,0.5538,0.5615,0.5559,0.5558,0.5558,0.5558,0,0.4843,0.4884,0.4963,0.5011,0.503,0.5069,0.512,0.516,0.5205,0.5221,0.5258,0.5272,0.5327,0.5308,0.5385,0.5355,0.5384,0.5404,0.5407,0.5413,0.5391,0.543,0.55,0.5509,0.542,0.5419,0.5418,0,0.4763,0.4849,0.487,0.4945,0.4989,0.5,0.5045,0.5084,0.5109,0.5151,0.518,0.523,0.5223,0.5243,0.5277,0.5309,0.5348,0.5305,0.537,0.5372,0.5356,0.5421,0.5423,0.5481,0.5403,0.5405,0.5406,0,0.4704,0.4771,0.4783,0.4809,0.4863,0.4901,0.4952,0.5005,0.5032,0.5076,0.5119,0.5191,0.5189,0.5222,0.524,0.5274,0.5323,0.5267,0.5269,0.5275,0.5399,0.54,0.541,0.5328,0.5329,0.5331,0.5395,0,0.4649,0.4695,0.4729,0.4786,0.4819,0.4869,0.4899,0.4931,0.4943,0.4967,0.5034,0.5077,0.5134,0.5154,0.5167,0.5234,0.5228,0.5225,0.5209,0.5252,0.5274,0.5283,0.5174,0.5174,0.5173,0.5173,0,0,0.4565,0.4633,0.4654,0.4702,0.4732,0.4743,0.4793,0.4824,0.4887,0.4908,0.4899,0.5007,0.5043,0.512,0.5136,0.516,0.5175,0.5159,0.5232,0.5238,0.5244,0.5267,0.5275,0.5173,0.5173,0.5173,0.5173,0,0.4551,0.4581,0.4629,0.4661,0.4709,0.4733,0.4744,0.4795,0.4813,0.4878,0.4888,0.4932,0.5018,0.5054,0.5084,0.515,0.5157,0.5166,0.519,0.5228,0.5235,0.5241,0.5264,0.5272,0.5172,0.5172,0.5172,0,0.4498,0.4533,0.4559,0.4626,0.4658,0.4705,0.4694,0.4744,0.4779,0.4792,0.4856,0.4885,0.4937,0.5006,0.5038,0.5032,0.5139,0.5112,0.5114,0.5118,0.5157,0.5165,0.5172,0.5079,0.5079,0.5078,0,0,0.4481,0.4524,0.4571,0.4625,0.4645,0.468,0.4708,0.4722,0.4766,0.4784,0.482,0.4865,0.4915,0.4948,0.4997,0.5069,0.5082,0.5099,0.5103,0.5106,0.5113,0.5153,0.516,0.5077,0.5077,0.5077,0,0,0.4474,0.4529,0.4532,0.4598,0.4638,0.4689,0.4722,0.4728,0.4775,0.4773,0.4802,0.4816,0.4881,0.491,0.4881,0.4992,0.4976,0.4984,0.4971,0.4977,0.4981,0.4973,0.4879,0,0,0,0,0,0.4474,0.4522,0.4524,0.4539,0.4626,0.4688,0.4699,0.4722,0.4709,0.4735,0.4767,0.4772,0.49,0.4876,0.4893,0.4924,0.5053,0.5058,0.5061,0.5062,0.5068,0.5073,0,0,0,0,0,0,0.448,0.4499,0.4523,0.4576,0.4595,0.4686,0.4669,0.4677,0.4707,0.4707,0.4765,0.4774,0.4797,0.4869,0.4884,0.4913,0.4874,0.5055,0.5059,0.5062,0.5064,0.5069,0.5073,0,0,0,0,0,0.4485,0.45,0.4632,0.4575,0.4592,0.4635,0.4668,0.4674,0.4698,0.4747,0.4756,0.4713,0.4797,0.4811,0.4878,0.4906,0.4865,0.487,0.5057,0.506,0.5063,0.5067,0,0,0,0,0,0,0.4489,0.4508,0.4636,0.4642,0.4558,0.463,0.4642,0.4671,0.4737,0.4746,0.4696,0.4695,0.4798,0.4809,0.482,0.4902,0.4856,0.4862,0.4865,0.5059,0.5062,0.5064,0,0,0,0,0,0,0.45,0.4513,0.4639,0.4616,0.462,0.4626,0.4636,0.4697,0.4738,0.4683,0.4684,0.4695,0.4783,0.4807,0.4816,0.491,0.485,0.4855,0.4859,0.4861,0.5061,0.5063,0,0,0,0,0,0,0.4506,0.4517,0.4615,0.4618,0.4621,0.4693,0.4681,0.4769,0.4715,0.468,0.4711,0.4709,0.4781,0.479,0.4813,0.4904,0.4909,0.485,0.4854,0.4856,0.4858,0,0,0,0,0,0,0,0.4511,0.4429,0.4599,0.4619,0.4622,0.4699,0.4701,0.4703,0.4714,0.4713,0.4711,0.471,0.482,0.4826,0.4832,0.4899,0,0,0.485,0.4852,0,0,0,0,0,0,0,0,0.4425,0.4428,0.4599,0.46,0.4601,0.4699,0.4701,0.4702,0.4714,0.4713,0.4712,0.4711,0.4822,0.4826,0.4831,0,0,0,0,0,0,0,0,0,0,0,0,0,0,0,0.4599,0.46,0,0.47,0.4701,0.4702,0.4714,0.4713,0.4712,0.4711,0.4823,0.4827,0.4831,0,0,0,0,0,0,0,0,0,0,0,0,0,0,0,0,0,0,0,0,0,0,0,0,0,0,0,0,0,0,0,0,0,0,0,0,0,0,0,0,0,0,0,0,0,0,0,0,0,0,0,0,0,0,0,0,0,0,0,0,0,0,0,0,0,0,0,0,0]}]]]